Regional Weather Roundup
Issued by NWS

Home | Current Version | Previous Version | Graphics & Text | Print | Product List | Glossary On
Versions: 1 2 3 4 5 6 7 8 9 10 11 12 13 14 15 16 17 18 19 20 21 22 23 24 25 26 27 28 29 30 31 32 33 34 35 36 37 38 39 40 41 42 43 44 45 46 47 48 49 50
000
ASUS43 KLOT 260404
RWRIL

ILLINOIS REGIONAL WEATHER ROUNDUP
NATIONAL WEATHER SERVICE CHICAGO/ROMEOVILLE IL
1100 PM CDT THU MAY 25 2017

NOTE: "FAIR" INDICATES FEW OR NO CLOUDS BELOW 12,000 FEET WITH NO
SIGNIFICANT WEATHER AND/OR OBSTRUCTIONS TO VISIBILITY.

* THESE STATIONS ARE NOT UNDER NWS QUALITY CONTROL. THEY ALSO MAY NOT
  REPORT WEATHER SUCH AS PRECIPITATION OR FOG.

ILZ001-002-007-009-015-016-024-260500-
NORTHWEST ILLINOIS

CITY           SKY/WX    TMP DP  RH WIND       PRES   REMARKS
MOLINE         PTCLDY    58  52  80 E5        29.75R
STERLING*      CLOUDY    59  57  93 CALM      29.77R
$$

ILZ003-004-008-010-011-017-018-260500-
NORTH CENTRAL ILLINOIS

CITY           SKY/WX    TMP DP  RH WIND       PRES   REMARKS
ROCKFORD       CLOUDY    57  54  89 CALM      29.78R
FREEPORT*      CLOUDY    58  54  86 CALM      29.79R
ROCHELLE*      CLOUDY    57  55  94 SW5       29.78R
DE KALB*       CLOUDY    59  54  83 CALM      29.78R
$$

ILZ005-006-012>014-019>023-260500-
NORTHEAST ILLINOIS

CITY           SKY/WX    TMP DP  RH WIND       PRES   REMARKS
CHICAGO-OHARE  PTCLDY    53  49  86 CALM      29.77R
CHICAGO-MIDWAY PTCLDY    58  51  78 N3        29.77R
AURORA         CLOUDY    58  55  90 CALM      29.77R
LANSING*       CLEAR     52  51  95 CALM      29.78R
WAUKEGAN       CLOUDY    54  52  93 CALM      29.77R
DUPAGE AIRPORT CLEAR     57  53  86 E5        29.77R
WHEELING       PTCLDY    53  51  93 CALM      29.78R
NORTHERLY ISL    N/A     57  50  77 N6          N/A
$$

LMZ740>746-260500-
SOUTHERN LAKE MICHIGAN

STATION/POSITION SKY/WX   TEMP    WIND        PRES    VSBY  WAVE
                          AIR SEA DIR/SP/G                  HT/PER
                          (F)     (DEG/KT/KT) (MB)    (MI)  (FT/S)
SOUTHERN BUOY              47 45  330/ 10/ 12 1006.7          2/ 5
WILMETTE HARBOR            52 51                N/A           2/ 5
HARRISON CRIB              57     340/  8/  9   N/A
BURNHAM HARBOR             57     330/  6/  7   N/A
CALUMET HARBOR             55     330/  4/  5 1007.8R
BURNS HARBOR               54     270/  8/  9 1008.8R
MICHIGAN CITY              51     240/ 12/ 13   N/A
MICHIGAN CITY 6N           51 51  270/  8/ 12   N/A           2/ 5
ST. JOSEPH                 52 55  290/  8/ 10 1007.9R         3/ 5
$$

ILZ025>027-034>036-040-047-049-050-058-095>099-260500-
WEST-CENTRAL ILLINOIS

CITY           SKY/WX    TMP DP  RH WIND       PRES   REMARKS
QUINCY         CLEAR     63  54  72 SE6       29.77R
MACOMB*        CLEAR     60  56  87 CALM      29.80R
$$

ILZ028>032-037-038-041>044-048-051>054-059>061-260500-
CENTRAL ILLINOIS

CITY           SKY/WX    TMP DP  RH WIND       PRES   REMARKS
BLOOMINGTON    CLEAR     56  53  90 E6        29.80R
DECATUR        CLEAR     58  56  93 E3        29.80R
PEORIA         CLOUDY    60  57  89 CALM      29.78R
LACON*         CLEAR     54  54  99 CALM      29.78R
LINCOLN*       CLEAR     61  58  91 E3        29.79R
SPRINGFIELD    CLEAR     61  56  83 CALM      29.79R
TAYLORVILLE    NOT AVBL
$$

ILZ033-039-045-046-055>057-062-063-260500-
EAST-CENTRAL ILLINOIS

CITY           SKY/WX    TMP DP  RH WIND       PRES   REMARKS
CHAMPAIGN      CLEAR     56  53  90 SE5       29.80R
MATTOON        CLEAR     59  59 100 CALM      29.79R
$$

ILZ079-100>102-260500-
SOUTHWEST ILLINOIS

CITY           SKY/WX    TMP DP  RH WIND       PRES   REMARKS
BELLEVILLE     PTCLDY    60  55  83 CALM      29.80R
CAHOKIA*       PTCLDY    62  53  72 S3        29.78R
SPARTA*        CLEAR     65  53  65 S7        29.80R
$$

ILZ064>066-069>071-074>076-080>082-084>086-088>090-092>094-260500-
SOUTH-CENTRAL ILLINOIS

CITY           SKY/WX    TMP DP  RH WIND       PRES   REMARKS
CARBONDALE     CLEAR     59  55  87 S6        29.80R
CAIRO*         CLEAR     65  53  65 S3        29.82R
EFFINGHAM*     CLEAR     58  58 100 CALM      29.81R
MARION         PTCLDY    64  54  68 S3        29.81R
MT. VERNON       N/A     54  54 100 CALM      29.80R
CENTRALIA*     CLEAR     60  57  91 CALM      29.80R
SALEM*         CLEAR     60  56  85 CALM      29.80R
$$

ILZ067-068-072-073-078-083-087-091-260500-
SOUTHEAST ILLINOIS

CITY           SKY/WX    TMP DP  RH WIND       PRES   REMARKS
LAWRENCEVILLE  CLEAR     61  59  93 CALM      29.81R
HARRISBURG*    CLEAR     59  55  87 CALM      29.82R
ROBINSON*      CLEAR     57  57  99 CALM      29.82R FOG
CARMI*         CLEAR     58  56  92 CALM      29.81R
$$

ABBREVIATIONS USED IN REMARKS
   TC - TEMPERATURE IN CELSIUS
  WCI - WIND CHILL INDEX
   HX - HEAT INDEX
  VSB - VISIBILITY
$$





USA.gov is the U.S. government's official web portal to all federal, state and local government web resources and services.